Location: ?aqq�ra
(29.8500°N, 31.2167°E)
Time: 19:04:18
(UTC+00:00)

Daily predictions for brighter satellites

Satellite Brightness Start Highest point End
(mag) Time Altitude Azimuth Time Altitude Azimuth Time Altitude Azimuth
Cosmos 2184 Rocket 4.0 16:06:47 10° S 16:12:55 77° E 16:19:04 10° N
Cosmos 2228 Rocket 4.4 16:11:39 10° NNW 16:15:56 47° W 16:20:09 10° SSW
USA 234 3.4 16:10:18 10° NE 16:16:46 62° SE 16:23:13 10° SSW
COSMO-SKYMED 1 3.6 16:12:59 10° N 16:17:12 52° WNW 16:21:24 10° SSW
Cosmos 2263 Rocket 2.2 16:12:12 10° NNW 16:17:42 62° ENE 16:23:12 10° SSE
Cosmos 968 Rocket 4.2 16:15:38 10° N 16:20:21 33° ENE 16:25:02 10° SE
Cosmos 1633 Rocket 3.1 16:16:28 10° S 16:20:52 87° E 16:25:18 10° N
Cosmos 1939 Rocket 4.1 16:19:17 10° S 16:22:59 46° W 16:26:41 10° NNW
H-2A R/B 2.5 16:18:02 10° SE 16:23:11 45° ENE 16:28:21 10° N
IRS-1C Rocket 4.1 16:21:28 10° SSE 16:26:38 60° ENE 16:31:49 10° N
SeaSat 1 2.5 16:22:39 10° NNE 16:27:33 64° ESE 16:32:25 10° SSW
Cosmos 2237 4.2 16:21:55 10° SSW 16:27:37 76° ESE 16:33:21 10° NNE
Cosmos 1437 3.0 16:24:55 10° NNW 16:27:46 62° W 16:30:35 10° S
CZ-4 R/B 1.5 16:24:15 10° SSE 16:27:55 46° ENE 16:31:38 10° N
Okean 1 4.0 16:25:27 10° NNE 16:29:04 32° E 16:32:42 10° SE
Cosmos 1515 4.3 16:26:15 10° NNE 16:29:43 32° E 16:33:08 10° SE
Cosmos 1707 Rocket 3.5 16:26:47 10° N 16:31:10 89° E 16:35:29 10° S
CZ-2C R/B 3.0 16:26:18 10° NNE 16:31:26 43° E 16:36:25 10° S
SAR-Lupe-4 3.5 16:37:10 10° NNE 16:40:45 82° ESE 16:44:18 10° S
CREW DRAGON DEMO-1 DEB 4.5 16:39:37 10° SSE 16:41:23 15° SE 16:41:45 15° ESE
CSL-04 Rocket 4.2 16:38:22 10° SE 16:43:23 36° ENE 16:48:23 10° N
ATLAS CENTAUR R/B 2.1 16:40:24 10° SW 16:43:55 46° WNW 16:47:26 10° NNE
SWIFT 4.1 16:42:01 10° SW 16:45:09 21° S 16:47:58 11° SE
Okean-O 2.6 16:41:43 10° SSE 16:46:06 65° ENE 16:50:29 10° N
Cosmos 2341 Rocket 4.2 16:41:52 10° SSE 16:47:51 46° E 16:53:48 10° NNE
Meteor 1-5 Rocket 4.3 16:46:10 10° SSE 16:51:13 48° E 16:56:23 10° NNE
Cosmos 2333 4.3 16:46:13 10° S 16:51:37 51° ESE 16:57:04 10° NNE
Cosmos 1844 Rocket 3.8 16:48:21 10° NNE 16:52:38 22° ENE 16:54:25 19° E
Cosmos 44 Rocket 4.0 16:48:16 10° N 16:53:07 38° ENE 16:56:37 17° ESE
Cosmos 1666 3.2 16:51:08 10° SSE 16:54:28 33° E 16:57:50 10° NNE
ERS-2 3.2 16:54:12 10° N 16:57:44 48° WNW 17:01:14 10° SSW
Cosmos 2360 Rocket 2.6 16:52:22 10° SSW 16:57:57 68° WNW 17:03:36 10° NNE
HJ-1C 3.3 16:55:07 10° SSE 16:58:23 63° ENE 17:01:40 10° N
Cosmos 1470 Rocket 4.3 16:55:37 10° SSW 17:00:00 58° W 17:04:25 10° N
Cosmos 1503 Rocket 4.5 16:55:56 10° N 17:00:42 37° ENE 17:04:05 17° SE
FUSE 4.4 16:57:09 10° WSW 17:02:22 51° S 17:05:28 23° ESE
DELTA 2 R/B (1) 3.5 17:00:40 10° WSW 17:06:13 83° SSE 17:09:40 24° ENE
Cosmos 2218 Rocket 4.4 17:00:38 10° SSE 17:06:33 41° E 17:12:29 10° NNE
Cosmos 2333 Rocket 2.2 17:02:19 10° S 17:07:48 56° ESE 17:13:22 10° NNE
Meteor 1-19 Rocket 4.3 17:05:52 10° N 17:11:45 81° W 17:17:25 10° S
Cosmos 1500 4.2 17:09:34 10° SSW 17:13:09 46° W 17:16:45 10° N
SL-08 RB Rocket 3.5 17:09:41 10° SSE 17:14:08 68° ENE 17:18:38 10° N
Meteor 2-4 Rocket 3.8 17:10:51 10° N 17:16:41 61° E 17:22:32 10° SSE
Cosmos 1933 Rocket 4.4 17:16:45 10° SSW 17:20:57 50° W 17:25:12 10° N
Cosmos 1703 Rocket 3.6 17:17:20 10° N 17:21:35 49° E 17:22:11 45° ESE
Cosmos 864 Rocket 4.5 17:17:35 10° SSE 17:23:31 54° E 17:29:30 10° NNE
SME Rocket 3.6 17:18:29 10° NNE 17:24:59 60° E 17:29:25 10° S
Cosmos 1959 Rocket 4.3 17:22:57 10° S 17:28:57 63° E 17:34:58 10° NNE
Hubble Space Telescope 1.9 17:31:39 10° SW 17:34:47 32° S 17:34:47 32° S
Lacrosse 4 Rocket 1.6 17:31:32 10° SSW 17:35:50 76° WNW 17:38:01 29° NNE
COSMOS 2428 2.5 17:32:11 10° SSW 17:37:50 75° ESE 17:42:29 16° NNE
Helios 1A Rocket 4.0 17:34:37 10° S 17:38:29 43° W 17:42:21 10° NNW
Cosmos 2242 Rocket 3.6 17:34:50 10° N 17:39:18 82° W 17:41:41 27° S
Meteor 1-11 Rocket 3.6 17:38:34 10° S 17:44:21 86° E 17:50:03 10° N
CZ-3 Stage 3 3.4 17:41:42 10° W 17:44:01 32° W 17:44:01 32° W
Cosmos 2219 Rocket 2.2 17:39:35 10° SSW 17:45:08 76° WNW 17:50:45 10° NNE
GP-B 4.4 17:42:02 10° SSW 17:46:11 40° W 17:50:22 10° NNW
MetOp-A 4.0 17:45:36 50° SSE 17:47:01 78° ENE 17:52:22 10° N
ASTEX 1 4.3 17:47:48 10° N 17:50:36 35° NNE 17:50:36 35° NNE
USA 238 DEB 3.6 17:47:33 10° SSW 17:53:17 56° SE 17:53:17 56° SE
USA 238 3.6 17:47:38 10° SSW 17:53:19 55° SE 17:53:19 55° SE
Delta 7925 Rocket 3.8 17:52:59 10° W 17:56:48 48° SW 17:56:48 48° SW
Delta 2 Rocket 4.0 18:00:03 10° WSW 18:05:40 58° SSW 18:05:40 58° SSW
Meteor 1-13 Rocket 4.2 18:00:29 10° N 18:05:58 78° N 18:05:58 78° N
Okean 1-7 4.2 18:04:55 10° NNW 18:08:47 40° W 18:08:47 40° W
CZ-3A R/B 3.2 17:57:21 10° W 18:09:40 52° SSW 18:09:40 52° SSW
NOSS 3-2 (A) 4.0 18:20:52 10° SW 18:24:44 45° WSW 18:24:44 45° WSW
Cosmos 1844 Rocket 3.9 18:31:28 10° NW 18:36:09 37° W 18:36:09 37° W
